[[{"header":{"parameterUnit":"m.s-1","parameterCategory":1,"la1":30.2991,"la2":30.254,"lo1":-89.0895,"lo2":-89.0444,"dy":0.0017,"dx":0.0017,"nx":28,"ny":28,"refTime":"2024-05-15T09:00:00:Z","depth":0,"parameterNumber":2,"parameterNumberName":"U-component_of_WINDS"},"data":[0,0,0,0,0,0,0,0,0,0,0,0,0,0,0,0,0,0,0,0,0,0,0,0,0,0,0,0,0,0,0,0,0,0,0,0,0,0,0,0,0,0,0,0,0,0,0,0,0,0,0,0,0,0,0,0,0,0,-2.4874,-2.4873,0,-2.4795,-2.4794,-2.4793,-2.472,-2.4719,-2.4718,-2.4717,-2.4634,-2.4632,-2.4631,0,0,0,0,0,0,0,0,0,0,0,0,0,-2.4963,-2.4962,-2.4874,-2.4873,-2.4872,-2.4795,-2.4794,-2.4793,-2.472,-2.4719,-2.4718,-2.4717,-2.4634,-2.4633,-2.4631,0,0,0,0,0,0,0,0,0,0,0,0,0,-2.4908,-2.4962,-2.4874,-2.4827,-2.4822,-2.4795,-2.4794,-2.4792,-2.472,-2.4719,-2.4717,-2.4716,-2.4635,-2.4633,-2.4631,-2.4644,0,0,-2.4624,-2.4623,0,0,0,0,0,0,0,0,-2.4911,-2.4905,-2.4835,-2.483,-2.4824,-2.4766,-2.4794,-2.4743,-2.472,-2.4758,-2.4717,-2.4715,-2.4679,-2.4673,-2.4661,-2.4641,-2.4637,-2.4624,-2.4623,-2.4622,-2.4621,0,0,0,0,0,0,0,-2.4915,-2.4908,-2.4843,-2.4834,-2.4827,-2.4809,-2.48,-2.4784,-2.4727,-2.4755,-2.475,-2.4741,-2.4675,-2.4663,-2.4658,-2.4636,-2.4624,-2.4622,-2.4621,-2.462,-2.4625,-2.4626,0,0,0,0,0,0,-2.4927,-2.4912,-2.4845,-2.484,-2.4865,-2.4809,-2.4798,-2.4786,-2.4727,-2.4717,-2.4743,-2.4738,-2.4667,-2.4661,-2.4655,-2.4667,-2.4622,-2.462,-2.4619,-2.4623,-2.4625,-2.4627,0,0,0,0,0,0,-2.4929,-2.4921,-2.4848,-2.4875,-2.4864,-2.4809,-2.4795,-2.4785,-2.4772,-2.4717,-2.4707,-2.474,-2.4666,-2.4658,-2.4648,-2.4664,-2.4619,-2.4617,-2.4622,-2.4624,-2.4626,-2.4693,0,0,0,0,0,0,-2.4932,-2.4923,-2.4927,-2.4875,-2.4863,-2.4843,-2.4796,-2.4784,-2.4769,-2.4763,-2.4712,-2.4703,-2.4664,-2.4652,-2.4646,-2.466,-2.4616,-2.462,-2.4623,-2.4625,-2.4689,-2.4697,-2.4704,0,0,0,0,0,-2.4935,-2.4948,-2.4927,-2.492,-2.4867,-2.4844,-2.4837,-2.4792,-2.4771,-2.4775,-2.474,-2.4704,-2.4664,-2.4651,-2.4644,-2.4658,-2.4619,-2.4622,-2.4625,-2.4685,-2.4695,-2.4703,0,0,0,0,0,0,-2.5001,-2.494,-2.4917,-2.4913,-2.4885,-2.4831,-2.4835,-2.4804,-2.478,-2.4775,-2.4721,-2.471,-2.4706,-2.4681,-2.4669,-2.4669,-2.4636,-2.4638,-2.4685,-2.4694,-2.4701,-2.4706,-2.4614,0,0,0,0,0,-2.5016,-2.5003,-2.495,-2.4952,-2.4939,-2.489,-2.4878,-2.4847,-2.4815,-2.4802,-2.4766,-2.4736,-2.4716,-2.4704,-2.4683,-2.4686,-2.4674,-2.4692,-2.47,-2.4706,-2.4707,-2.4708,-2.4716,-2.4637,-2.4637,-2.4637,0,0,-2.5045,-2.501,-2.5004,-2.4965,-2.4938,-2.4926,-2.488,-2.4868,-2.4858,-2.4799,-2.4788,-2.4762,-2.4724,-2.4721,-2.4718,-2.47,-2.4728,-2.471,-2.4716,-2.4713,-2.4712,-2.472,-2.4726,-2.4639,-2.4638,-2.4638,0,0,-2.5091,-2.5064,-2.5063,-2.5039,-2.5001,-2.4968,-2.4969,-2.4921,-2.4901,-2.489,-2.4846,-2.4834,-2.4801,-2.4777,-2.476,-2.4802,-2.4768,-2.4797,-2.4834,-2.4835,-2.4842,-2.4847,-2.4861,-2.4867,-2.4799,-2.4799,-2.4799,0,-2.5132,-2.5111,-2.5066,-2.5057,-2.5041,-2.4991,-2.499,-2.4968,-2.4925,-2.4915,-2.4896,-2.4856,-2.4827,-2.4818,-2.4829,-2.4817,-2.4816,-2.48,-2.4845,-2.4849,-2.4853,-2.4866,-2.4872,-2.4803,-2.4802,-2.4802,-2.4801,0,-2.5162,-2.5149,-2.5153,-2.5114,-2.5099,-2.5094,-2.5049,-2.5039,-2.5011,-2.4982,-2.4971,-2.4936,-2.4907,-2.4903,-2.4875,-2.4891,-2.4881,-2.4855,-2.482,-2.4865,-2.4876,-2.4881,-2.4808,-2.4806,-2.4805,-2.4804,0,0,-2.5244,-2.5183,-2.5185,-2.5167,-2.5124,-2.5112,-2.5107,-2.508,-2.5072,-2.5046,-2.5039,-2.5014,-2.499,-2.4972,-2.4941,-2.4942,-2.4977,-2.4915,-2.4914,-2.4927,-2.4993,-2.5012,-2.5018,-2.4957,-2.4957,-2.4958,-2.4996,0,-2.5281,-2.5267,-2.5228,-2.5226,-2.5213,-2.5167,-2.5162,-2.5135,-2.5108,-2.5094,-2.5064,-2.5047,-2.5017,-2.5006,-2.5006,-2.4973,-2.499,-2.497,-2.4949,-2.4949,-2.4957,-2.5024,-2.5043,-2.508,-2.5,-2.5001,-2.5001,0,-2.5321,-2.5299,-2.5296,-2.5255,-2.5248,-2.5244,-2.5217,-2.5205,-2.5174,-2.5154,-2.5136,-2.5102,-2.5094,-2.5065,-2.5053,-2.5041,-2.503,-2.5014,-2.5014,-2.5008,-2.4976,-2.5018,-2.5091,-2.5096,-2.5008,-2.5007,-2.5007,0,-2.538,-2.5349,-2.5344,-2.533,-2.5282,-2.5281,-2.5261,-2.5229,-2.5216,-2.5193,-2.5185,-2.5162,-2.5148,-2.5131,-2.5093,-2.5075,-2.5085,-2.5053,-2.5068,-2.5069,-2.5069,-2.5069,-2.514,-2.5067,-2.5067,-2.5067,-2.5067,0,-2.5424,-2.5424,-2.5369,-2.5365,-2.5364,-2.5322,-2.5321,-2.5297,-2.527,-2.5261,-2.5221,-2.5213,-2.5164,-2.5151,-2.5121,-2.5116,-2.511,-2.5094,-2.5086,-2.5096,-2.5098,-2.5087,-2.5082,-2.5068,-2.5068,-2.5068,-2.5067,0,-2.5487,-2.5451,-2.5442,-2.5399,-2.5388,-2.5389,-2.5352,-2.5347,-2.532,-2.5309,-2.5304,-2.526,-2.5243,-2.5205,-2.5177,-2.5157,-2.5159,-2.5145,-2.5169,-2.5163,-2.5181,-2.5179,-2.5244,-2.525,-2.5176,-2.5177,-2.5177,0,-2.5517,-2.5516,-2.5473,-2.5465,-2.5447,-2.5434,-2.5421,-2.538,-2.5369,-2.5336,-2.5335,-2.5315,-2.5297,-2.5272,-2.5238,-2.5217,-2.5201,-2.5226,-2.5198,-2.5209,-2.52,-2.52,-2.5199,-2.5231,-2.5232,-2.5233,-2.5234,0,-2.5573,-2.5556,-2.5539,-2.5517,-2.5504,-2.5485,-2.5463,-2.5458,-2.5413,-2.5402,-2.5385,-2.5371,-2.5344,-2.5325,-2.53,-2.5279,-2.5249,-2.5244,-2.5246,-2.5255,-2.5269,-2.526,-2.5184,-2.5241,-2.524,-2.524,-2.5239,-2.5239,-2.5618,-2.5616,-2.5586,-2.557,-2.555,-2.5531,-2.5525,-2.5498,-2.5483,-2.5458,-2.5436,-2.5421,-2.5393,-2.5356,-2.5338,-2.5326,-2.531,-2.5314,-2.5314,-2.5315,-2.532,-2.5273,-2.5322,-2.5321,-2.5321,-2.5321,-2.5321,0,-2.5671,-2.5651,-2.5636,-2.5608,-2.5596,-2.5571,-2.5547,-2.5538,-2.5525,-2.5502,-2.5486,-2.5467,-2.5449,-2.5416,-2.5395,-2.5392,-2.5378,-2.5388,-2.5386,-2.5382,-2.5335,-2.5335,-2.54,-2.54,-2.54,-2.54,-2.54,-2.54,-2.5696,-2.5691,-2.5671,-2.5656,-2.5635,-2.5621,-2.5609,-2.5592,-2.5573,-2.5555,-2.554,-2.5519,-2.5492,-2.5469,-2.5452,-2.5443,-2.5436,-2.5451,-2.5437,-2.5393,-2.5385,-2.5378,-2.5377,-2.545,-2.545,-2.5484,-2.5485,-2.5485]},{"header":{"parameterUnit":"m.s-1","parameterCategory":1,"la1":30.2991,"la2":30.254,"lo1":-89.0895,"lo2":-89.0444,"dy":0.0017,"dx":0.0017,"nx":28,"ny":28,"refTime":"2024-05-15T09:00:00:Z","depth":0,"parameterNumber":3,"parameterNumberName":"V-component_of_WINDS"},"data":[0,0,0,0,0,0,0,0,0,0,0,0,0,0,0,0,0,0,0,0,0,0,0,0,0,0,0,0,0,0,0,0,0,0,0,0,0,0,0,0,0,0,0,0,0,0,0,0,0,0,0,0,0,0,0,0,0,0,2.1318,2.1318,0,2.1347,2.1347,2.1347,2.1421,2.1423,2.1424,2.1426,2.1451,2.1451,2.145,0,0,0,0,0,0,0,0,0,0,0,0,0,2.1323,2.1323,2.1318,2.1318,2.1318,2.1347,2.1347,2.1347,2.1421,2.1423,2.1425,2.1426,2.1452,2.1451,2.145,0,0,0,0,0,0,0,0,0,0,0,0,0,2.1333,2.1322,2.1318,2.1358,2.1362,2.1347,2.1347,2.1347,2.142,2.1423,2.1425,2.1427,2.1452,2.1451,2.145,2.1395,0,0,2.1446,2.1446,0,0,0,0,0,0,0,0,2.1332,2.1333,2.1352,2.1356,2.136,2.1383,2.1359,2.1363,2.142,2.1398,2.1426,2.1428,2.1426,2.1428,2.1428,2.1397,2.1398,2.1446,2.1445,2.1445,2.1445,0,0,0,0,0,0,0,2.1332,2.1332,2.1329,2.1352,2.1357,2.1375,2.1379,2.136,2.1399,2.14,2.1406,2.1408,2.1429,2.1429,2.1429,2.1398,2.1446,2.1445,2.1444,2.1444,2.1325,2.1322,0,0,0,0,0,0,2.1326,2.1331,2.1328,2.133,2.1352,2.1372,2.1377,2.1373,2.1399,2.1405,2.1406,2.1412,2.1429,2.143,2.143,2.1369,2.1445,2.1444,2.1443,2.1327,2.1324,2.1321,0,0,0,0,0,0,2.1325,2.1325,2.1327,2.1332,2.1334,2.137,2.1365,2.1372,2.1372,2.1404,2.1411,2.1399,2.1431,2.1432,2.1404,2.1371,2.1443,2.1442,2.133,2.1326,2.1323,2.1245,0,0,0,0,0,0,2.1325,2.1324,2.1304,2.1331,2.1333,2.1301,2.1363,2.1371,2.137,2.1378,2.1399,2.1404,2.1433,2.1405,2.1403,2.137,2.1441,2.1333,2.1328,2.1324,2.1251,2.1239,2.1229,0,0,0,0,0,2.1325,2.128,2.1303,2.1302,2.1309,2.1299,2.13,2.1335,2.1367,2.1347,2.1368,2.1404,2.1375,2.1402,2.14,2.1366,2.1335,2.133,2.1324,2.1255,2.1241,2.1229,0,0,0,0,0,0,2.1247,2.1284,2.131,2.1273,2.1282,2.1311,2.1287,2.1319,2.1319,2.1325,2.1368,2.1372,2.1338,2.135,2.1379,2.1315,2.1361,2.1355,2.1309,2.1296,2.1286,2.1283,2.144,0,0,0,0,0,2.1226,2.1215,2.1248,2.1212,2.1215,2.125,2.1247,2.1274,2.1285,2.1289,2.1307,2.1316,2.1309,2.1303,2.1298,2.1253,2.1258,2.1229,2.1218,2.1209,2.1203,2.118,2.1167,2.1303,2.1303,2.1303,0,0,2.1181,2.12,2.1191,2.1197,2.1207,2.1195,2.1253,2.1237,2.1228,2.1286,2.1262,2.1275,2.1287,2.1251,2.1235,2.1259,2.1167,2.1202,2.1194,2.1193,2.1173,2.116,2.1149,2.1299,2.13,2.1301,0,0,2.1093,2.1107,2.1079,2.1088,2.1104,2.1128,2.1121,2.1146,2.1158,2.1134,2.1178,2.1167,2.1154,2.1161,2.1163,2.1079,2.1112,2.1076,2.102,2.0997,2.0986,2.0977,2.0947,2.0936,2.107,2.107,2.107,0,2.1035,2.1019,2.106,2.1041,2.1043,2.1096,2.1068,2.1075,2.1087,2.1087,2.1113,2.1099,2.1111,2.1077,2.1057,2.1056,2.1049,2.1074,2.0985,2.0976,2.0968,2.094,2.0929,2.1065,2.1066,2.1066,2.1067,0,2.0948,2.0936,2.0911,2.0924,2.0922,2.0898,2.0935,2.0928,2.0955,2.0976,2.0951,2.0967,2.0967,2.0961,2.0986,2.0931,2.0945,2.0977,2.1024,2.095,2.0924,2.0914,2.1059,2.1061,2.1062,2.1063,0,0,2.0811,2.0847,2.0838,2.0844,2.0866,2.0857,2.0836,2.0838,2.0831,2.0838,2.0821,2.081,2.084,2.0842,2.0869,2.0849,2.0782,2.0884,2.0885,2.0865,2.0722,2.0698,2.0685,2.0804,2.0802,2.0801,2.0721,0,2.0729,2.0696,2.0732,2.0691,2.0681,2.0732,2.0714,2.0725,2.0743,2.0737,2.0757,2.0748,2.0789,2.0791,2.0774,2.0794,2.0754,2.08,2.0788,2.0787,2.0784,2.0671,2.0645,2.0569,2.0711,2.071,2.0709,0,2.0628,2.0633,2.0591,2.0617,2.0614,2.0597,2.0601,2.0594,2.0608,2.0623,2.0626,2.0659,2.0639,2.0685,2.0658,2.0689,2.0686,2.0695,2.0693,2.0693,2.0743,2.0668,2.0546,2.0534,2.0693,2.0694,2.0696,0,2.0533,2.0529,2.0504,2.0508,2.0537,2.0524,2.0535,2.0551,2.0549,2.0553,2.0553,2.0553,2.0553,2.0552,2.0584,2.0615,2.0554,2.0602,2.0565,2.0564,2.055,2.055,2.0425,2.0548,2.0548,2.0548,2.0548,0,2.0438,2.0411,2.0462,2.0446,2.0417,2.0458,2.0428,2.0444,2.0458,2.0446,2.049,2.0477,2.0521,2.0512,2.0537,2.0511,2.0511,2.0522,2.0529,2.0518,2.0517,2.0517,2.0523,2.0545,2.0546,2.0546,2.0547,0,2.0327,2.036,2.0336,2.0366,2.0373,2.035,2.0375,2.0362,2.0384,2.0368,2.0367,2.0401,2.0394,2.0426,2.0424,2.044,2.0402,2.0418,2.0398,2.0403,2.0364,2.0367,2.0234,2.0219,2.0351,2.035,2.0349,0,2.0264,2.0245,2.0273,2.0269,2.0278,2.0271,2.027,2.031,2.0307,2.0322,2.0306,2.0303,2.0303,2.0289,2.0313,2.0311,2.0327,2.0281,2.0327,2.0317,2.0327,2.0328,2.0326,2.0271,2.0269,2.0268,2.0267,0,2.0149,2.0167,2.0165,2.0169,2.0167,2.0172,2.0179,2.0173,2.0216,2.0211,2.0205,2.0205,2.0203,2.0199,2.0203,2.0214,2.0247,2.0252,2.0244,2.0233,2.0222,2.0228,2.0371,2.0255,2.0256,2.0257,2.0258,2.0258,2.0061,2.0046,2.0064,2.0061,2.0071,2.0077,2.0066,2.0087,2.0083,2.0087,2.011,2.01,2.0114,2.0123,2.013,2.0122,2.0144,2.0131,2.0128,2.0124,2.0118,2.0223,2.0123,2.0123,2.0123,2.0124,2.0124,0,1.9948,1.9963,1.9959,1.9969,1.9966,1.9999,2.0009,2.0005,1.9995,2.0006,2.0006,1.9999,1.9995,2.0019,2.0019,2.0008,2.0023,2.0006,2.0008,2.0009,2.0098,2.0106,1.9994,1.9994,1.9994,1.9994,1.9994,1.9994,1.989,1.9867,1.9886,1.9869,1.9883,1.9875,1.9878,1.9883,1.9892,1.9883,1.9881,1.9898,1.9914,1.9915,1.9913,1.992,1.9918,1.9896,1.9908,1.9991,2.0003,2.0015,2.0023,1.9895,1.9895,1.982,1.982,1.9819]}]]